Volver al catálogo

STARLINK-3820

ActivoComunicacionesVLEO
NORAD 52364·PAYLOAD·🇺🇸 United States

Lanzado Apr 29, 2022 desde Cape Canaveral Space Force Station

Loading…

Próximos Pases (próximas 24 horas)

TLE

ActualizadoSource: CelesTrak SupGP

Época: Sep 15, 2026, 01:57 UTC

1 52364C 22045AK  26258.08173611 -.00030768  00000+0 -93376-3 0  2587
2 52364  53.1588  51.0122 0001249  87.1573 344.6136 15.33559391    12

Sigue STARLINK-3820 en tiempo real con AllMySat

Download on the App Store